Waarnemingen

Advertentie
Mijn weer
Dorans, Frankrijk (7296): temperatuur & dauwpunt: 14.07.2018 04:00:00 - 20.07.2018 04:00:00 (CEST)Dorans, Frankrijk (7296): temperatuur 5cm: 14.07.2018 04:00:00 - 20.07.2018 04:00:00 (CEST)Dorans, Frankrijk (7296): temperatuur -20cm & temperatuur -100cm: 14.07.2018 04:00:00 - 20.07.2018 04:00:00 (CEST)Dorans, Frankrijk (7296): windsnelheid & windstoten: 14.07.2018 04:00:00 - 20.07.2018 04:00:00 (CEST)Dorans, Frankrijk (7296): windrichting: 14.07.2018 04:00:00 - 20.07.2018 04:00:00 (CEST)Dorans, Frankrijk (7296): luchtdruk: 14.07.2018 04:00:00 - 20.07.2018 04:00:00 (CEST)Dorans, Frankrijk (7296): zicht: 14.07.2018 04:00:00 - 20.07.2018 04:00:00 (CEST)Dorans, Frankrijk (7296): neerslag: 14.07.2018 04:00:00 - 20.07.2018 04:00:00 (CEST)
Datum & Tijd tt [°C] td [°C] tt 5cm [°C] tt -20cm [°C] tt -100cm [°C] ff [km/u] ff [kn] fx [km/u] fx [kn] dd ppp [hPa] vv [km] rr [mm]
20.07.2018 04:00:00 18,6 12,3 16,6 23,5 18,8 3 2 6 3 OZO 1014,3 20 0,0
20.07.2018 03:00:00 19,1 12,1 16,8 23,7 18,8 1 1 7 4 NO 1014,4 20 0,0
20.07.2018 02:00:00 20,4 11,9 16,9 23,9 18,8 3 1 15 8 OZO 1014,5 20 0,0
20.07.2018 01:00:00 21,0 11,9 17,0 24,1 18,8 6 3 9 5 ZZO 1014,7 20 0,0
20.07.2018 00:00:00 21,2 11,8 16,7 24,2 18,7 5 3 10 5 ZO 1014,6 20 0,0
19.07.2018 23:00:00 22,7 11,7 18,8 24,4 18,7 5 3 17 9 O 1014,3 20 0,0
19.07.2018 22:00:00 23,8 12,1 20,6 24,5 18,8 6 3 17 9 O 1014,2 20 0,0
19.07.2018 21:00:00 25,6 12,1 23,8 24,5 18,7 10 5 19 11 ONO 1013,6 20 0,0
19.07.2018 20:00:00 27,9 11,9 30,3 24,4 18,7 8 4 20 11 ONO 1012,9 20 0,0
19.07.2018 19:00:00 29,0 11,5 35,2 24,2 18,7 9 5 22 12 O 1012,6 18 0,0
19.07.2018 18:00:00 29,1 11,6 37,6 23,9 18,7 11 6 26 14 O 1012,8 10 0,0
19.07.2018 17:00:00 29,3 11,8 38,0 23,6 18,7 13 7 31 17 O 1013,2 20 0,0
19.07.2018 16:00:00 29,2 12,2 34,4 23,3 18,7 13 7 29 16 O 1013,8 20 0,0
19.07.2018 15:00:00 28,6 11,6 36,5 23,0 18,7 18 10 32 18 ONO 1014,2 20 0,0
19.07.2018 14:00:00 28,1 11,2 35,0 22,7 18,7 17 9 40 22 O 1014,6 20 0,0
19.07.2018 13:00:00 27,5 10,2 33,2 22,5 18,7 20 11 39 21 ONO 1015,1 20 0,0
19.07.2018 12:00:00 26,8 11,7 30,6 22,4 18,7 19 10 32 17 ONO 1015,4 20 0,0
19.07.2018 11:00:00 24,4 12,7 27,1 22,3 18,7 12 7 25 14 O 1016,1 20 0,0
19.07.2018 10:00:00 23,7 12,7 24,1 22,4 18,7 11 6 22 12 O 1016,1 20 0,0
19.07.2018 09:00:00 21,1 11,1 20,6 22,5 18,7 10 6 19 11 O 1016,3 20 0,0
19.07.2018 08:00:00 19,6 11,6 16,4 22,6 18,7 8 5 17 9 O 1016,4 20 0,0
19.07.2018 07:00:00 17,5 12,2 13,9 22,8 18,7 9 5 15 8 ZO 1016,8 20 0,0
19.07.2018 06:00:00 17,5 12,2 13,9 23,0 18,7 6 3 12 6 OZO 1016,5 20 0,0
19.07.2018 05:00:00 18,2 12,4 14,4 23,2 18,7 6 3 12 6 ZO 1016,4 20 0,0
19.07.2018 04:00:00 18,1 12,5 14,1 23,4 18,7 5 3 9 5 ZO 1016,4 20 0,0
19.07.2018 03:00:00 18,9 13,1 14,7 23,6 18,7 4 2 10 5 OZO 1016,2 20 0,0
19.07.2018 02:00:00 19,5 13,0 15,7 23,8 18,7 6 3 9 5 ZO 1016,1 20 0,0
19.07.2018 01:00:00 19,9 12,9 16,2 24,0 18,7 5 3 16 9 ZZO 1015,9 20 0,0
19.07.2018 00:00:00 21,3 13,2 18,4 24,2 18,7 8 4 24 13 OZO 1015,3 20 0,0
18.07.2018 23:00:00 22,2 13,5 19,8 24,3 18,7 9 5 22 12 O 1014,9 20 0,0
18.07.2018 22:00:00 23,0 14,0 20,4 24,4 18,7 8 4 21 11 O 1014,6 20 0,0
18.07.2018 21:00:00 25,0 14,5 23,3 24,4 18,7 11 6 25 14 ONO 1013,9 20 0,0
18.07.2018 20:00:00 27,3 12,9 29,0 24,3 18,7 13 7 22 12 ONO 1013,4 20 0,0
18.07.2018 19:00:00 28,6 10,3 34,1 24,1 18,7 9 5 26 14 ONO 1013,2 18 0,0
18.07.2018 18:00:00 29,2 10,8 35,7 23,8 18,6 13 7 22 12 NO 1013,4 20 0,0
18.07.2018 17:00:00 29,5 11,1 33,9 23,5 18,6 6 3 23 12 O 1013,8 19 0,0
18.07.2018 16:00:00 29,4 11,4 40,4 23,1 18,6 10 5 22 12 O 1014,3 20 0,0
18.07.2018 15:00:00 29,1 12,5 39,1 22,7 18,6 10 5 26 14 ZO 1014,5 13 0,0
18.07.2018 14:00:00 28,0 13,9 32,3 22,4 18,6 9 5 24 13 O 1015,1 20 0,0
18.07.2018 13:00:00 27,0 13,0 36,2 22,1 18,6 9 5 23 13 ONO 1015,8 20 0,0
18.07.2018 12:00:00 26,0 14,5 30,9 21,9 18,6 9 5 20 11 ONO 1016,2 20 0,0
18.07.2018 11:00:00 24,8 14,9 28,1 21,9 18,6 10 5 20 11 ONO 1016,6 20 0,0
18.07.2018 10:00:00 23,5 13,7 25,2 21,9 18,6 6 3 13 7 NO 1017,1 20 0,0
18.07.2018 09:00:00 22,4 14,3 19,9 22,1 18,6 3 2 7 4 NNO 1017,2 20 0,0
18.07.2018 08:00:00 19,6 14,0 15,3 22,2 18,6 2 1 5 3 W 1017,4 20 0,0
18.07.2018 07:00:00 16,0 13,7 13,1 22,4 18,6 1 0 4 2 N 1017,9 20 0,0
18.07.2018 06:00:00 15,1 13,1 12,5 22,6 18,6 2 1 4 2 NNW 1018,1 20 0,0
18.07.2018 05:00:00 16,2 12,7 12,9 22,8 18,6 1 1 7 4 W 1017,9 20 0,0
18.07.2018 04:00:00 16,8 12,9 13,8 23,0 18,6 5 3 13 7 WZW 1017,9 20 0,0
18.07.2018 03:00:00 16,6 13,3 13,4 23,2 18,6 10 5 14 7 ZW 1017,9 20 0,0
18.07.2018 02:00:00 17,3 13,8 14,2 23,4 18,6 7 4 12 6 WZW 1017,8 20 0,0
18.07.2018 01:00:00 18,5 13,4 15,7 23,6 18,5 7 4 10 5 WZW 1017,6 20 0,0
18.07.2018 00:00:00 18,9 13,3 15,9 23,8 18,6 3 2 9 5 W 1017,6 20 0,0
17.07.2018 23:00:00 20,1 12,8 16,6 24,0 18,6 5 3 14 7 W 1017,4 20 0,0
17.07.2018 22:00:00 20,9 13,3 18,3 24,1 18,6 9 5 13 7 WZW 1016,8 20 0,0
17.07.2018 21:00:00 23,3 12,3 21,5 24,1 18,6 9 5 26 14 W 1016,1 20 0,0
17.07.2018 20:00:00 24,7 11,6 23,8 24,1 18,6 15 8 31 17 W 1015,4 20 0,0
17.07.2018 19:00:00 27,9 9,7 27,3 23,9 18,6 13 7 30 16 WNW 1014,6 20 0,0
17.07.2018 18:00:00 28,0 13,1 28,7 23,6 18,6 13 7 40 22 WNW 1014,7 20 0,0
17.07.2018 17:00:00 29,5 12,0 35,2 23,3 18,6 12 7 32 18 WNW 1014,1 20 0,0
17.07.2018 16:00:00 29,1 10,7 35,2 22,9 18,6 14 8 38 21 NW 1014,5 20 0,0
17.07.2018 15:00:00 28,0 13,5 34,9 22,5 18,5 13 7 34 18 WNW 1014,6 20 0,0
17.07.2018 14:00:00 27,5 13,4 34,5 22,1 18,5 16 9 32 17 W 1015,0 20 0,0
17.07.2018 13:00:00 26,8 15,8 31,7 21,9 18,5 14 8 31 17 W 1015,2 19 0,0
17.07.2018 12:00:00 25,1 14,8 27,7 21,7 18,5 13 7 31 17 W 1015,7 20 0,0
17.07.2018 11:00:00 23,3 14,6 24,9 21,7 18,5 16 9 28 15 W 1016,0 20 0,0
17.07.2018 10:00:00 22,8 15,1 22,7 21,8 18,5 10 5 20 11 WNW 1015,8 20 0,0
17.07.2018 09:00:00 20,9 14,1 19,6 21,9 18,5 10 5 20 11 W 1016,1 20 0,0
17.07.2018 08:00:00 19,2 13,6 17,1 22,1 18,5 8 4 15 8 WNW 1016,0 20 0,0
17.07.2018 07:00:00 18,0 13,1 13,3 22,3 18,5 6 3 14 8 W 1015,8 20 0,0
17.07.2018 06:00:00 15,9 12,6 12,1 22,5 18,5 5 3 9 5 WZW 1015,6 20 0,0
17.07.2018 05:00:00 15,2 12,9 12,6 22,7 18,5 5 3 9 5 WZW 1015,2 20 0,0
17.07.2018 04:00:00 15,8 13,3 13,5 22,9 18,5 6 3 10 5 WZW 1014,9 20 0,0
17.07.2018 03:00:00 17,1 13,8 14,1 23,1 18,5 6 4 11 6 ZW 1014,6 20 0,0
17.07.2018 02:00:00 18,2 13,7 14,8 23,3 18,5 3 2 5 3 W 1014,1 20 0,0
17.07.2018 01:00:00 18,3 13,6 15,5 23,4 18,5 3 1 5 3 O 1014,0 20 0,0
17.07.2018 00:00:00 18,9 13,5 16,1 23,6 18,5 4 2 5 3 W 1013,7 20 0,0
16.07.2018 23:00:00 20,6 13,8 17,7 23,8 18,5 3 2 8 4 NNW 1013,0 20 0,0
16.07.2018 22:00:00 21,9 13,5 18,1 23,9 18,5 3 2 12 6 O 1011,9 20 0,0
16.07.2018 21:00:00 24,4 12,7 22,1 23,9 18,5 6 3 22 12 O 1010,9 20 0,0
16.07.2018 20:00:00 25,4 12,3 25,1 23,8 18,5 10 6 22 12 O 1010,0 20 0,0
16.07.2018 19:00:00 27,4 11,8 28,6 23,6 18,5 10 6 22 12 O 1009,2 20 0,0
16.07.2018 18:00:00 28,5 12,4 31,5 23,3 18,5 9 5 29 16 ONO 1008,9 20 0,0
16.07.2018 17:00:00 29,5 10,6 33,6 23,0 18,5 6 3 24 13 WNW 1009,1 17 0,0
16.07.2018 16:00:00 28,3 10,0 38,1 22,6 18,4 7 4 23 12 ZZW 1009,6 18 0,0
16.07.2018 15:00:00 27,9 9,7 36,4 22,2 18,5 9 5 18 10 ZO 1010,2 17 0,0
16.07.2018 14:00:00 27,1 10,7 36,1 21,8 18,4 9 5 25 13 Z 1011,1 16 0,0
16.07.2018 13:00:00 25,7 11,8 33,6 21,6 18,4 12 6 21 12 O 1011,6 20 0,0
16.07.2018 12:00:00 25,0 14,2 29,0 21,5 18,4 6 4 15 8 OZO 1012,4 20 0,0
16.07.2018 11:00:00 23,1 13,3 26,3 21,4 18,4 6 3 16 9 OZO 1012,8 20 0,0
16.07.2018 10:00:00 21,3 14,7 21,5 21,5 18,4 5 3 12 6 ONO 1013,3 20 0,0
16.07.2018 09:00:00 18,9 15,2 16,6 21,6 18,4 5 3 10 5 O 1014,3 20 0,0
16.07.2018 08:00:00 16,9 14,2 13,4 21,8 18,4 4 2 9 5 O 1014,8 19 0,0
16.07.2018 07:00:00 14,3 13,7 10,8 22,0 18,4 3 2 9 5 ZW 1015,1 19 0,0
16.07.2018 06:00:00 13,2 12,6 10,6 22,2 18,4 5 3 8 4 Z 1015,3 10 0,0
16.07.2018 05:00:00 14,3 13,7 11,3 22,4 18,4 2 1 7 4 ZZW 1015,0 12 0,2
16.07.2018 04:00:00 14,1 13,3 11,6 22,6 18,4 4 2 8 5 W 1015,5 9 0,0
16.07.2018 03:00:00 14,8 14,0 11,8 22,8 18,4 5 3 6 3 WNW 1015,6 10 0,0
16.07.2018 02:00:00 15,3 13,7 12,2 23,0 18,4 5 3 11 6 ZZO 1015,8 20 0,0
16.07.2018 01:00:00 16,5 14,5 13,0 23,2 18,4 5 3 9 5 O 1015,6 20 0,0
16.07.2018 00:00:00 17,2 14,5 14,8 23,3 18,4 8 4 29 16 ONO 1015,7 20 0,0
15.07.2018 23:00:00 18,1 14,2 15,6 23,5 18,4 13 7 23 12 Z 1015,0 20 0,2
15.07.2018 22:00:00 19,3 13,7 17,7 23,6 18,4 10 5 18 10 O 1015,2 20 0,0
15.07.2018 21:00:00 20,0 14,4 19,1 23,6 18,4 8 4 20 11 Z 1015,7 20 0,0
15.07.2018 20:00:00 20,5 14,4 20,4 23,6 18,4 16 9 29 16 ONO 1014,7 20 0,0
15.07.2018 19:00:00 22,2 11,9 22,6 23,6 18,4 12 7 43 23 OZO 1014,1 20 0,0
15.07.2018 18:00:00 25,3 14,1 26,5 23,4 18,4 14 7 24 13 OZO 1012,5 20 0,0
15.07.2018 17:00:00 27,4 14,1 33,1 23,1 18,4 11 6 28 15 ZO 1011,9 20 0,0
15.07.2018 16:00:00 30,4 11,4 31,1 22,8 18,4 7 4 27 15 NW 1011,4 20 0,0
15.07.2018 15:00:00 28,8 12,2 31,6 22,4 18,3 9 5 20 11 NNW 1012,0 20 0,0
15.07.2018 14:00:00 29,3 13,1 34,6 22,0 18,3 7 4 20 11 NW 1012,5 20 0,0
15.07.2018 13:00:00 27,8 13,3 33,6 21,8 18,4 8 4 16 9 NO 1013,5 20 0,0
15.07.2018 12:00:00 26,1 13,6 29,8 21,7 18,4 4 2 18 10 ONO 1014,4 20 0,0
15.07.2018 11:00:00 24,6 15,0 26,5 21,7 18,4 9 5 23 12 O 1014,9 20 0,0
15.07.2018 10:00:00 22,7 13,7 23,5 21,7 18,3 11 6 26 14 O 1015,7 20 0,0
15.07.2018 09:00:00 21,4 13,8 20,8 21,8 18,3 13 7 26 14 O 1016,2 20 0,0
15.07.2018 08:00:00 19,7 14,1 16,8 21,9 18,3 10 5 20 11 OZO 1016,2 20 0,0
15.07.2018 07:00:00 17,8 13,7 13,4 22,1 18,3 5 3 13 7 O 1016,1 20 0,0
15.07.2018 06:00:00 16,4 13,1 13,5 22,3 18,4 3 1 5 3 O 1016,1 20 0,0
15.07.2018 05:00:00 17,7 13,6 15,3 22,5 18,4 5 3 8 4 NNW 1015,8 20 0,0
15.07.2018 04:00:00 18,8 13,2 15,1 22,6 18,3 1 1 14 8 N 1015,9 20 0,0
15.07.2018 03:00:00 20,1 13,3 15,9 22,7 18,3 6 3 10 6 Z 1015,8 20 0,0
15.07.2018 02:00:00 20,6 13,5 17,1 22,9 18,3 4 2 9 5 ZZO 1016,0 20 0,0
15.07.2018 01:00:00 21,1 13,5 18,6 23,0 18,3 4 2 7 4 ZO 1016,0 20 0,0
15.07.2018 00:00:00 22,4 13,5 19,8 23,2 18,3 5 3 9 5 NO 1015,6 20 0,0
14.07.2018 23:00:00 22,5 13,6 19,7 23,3 18,3 5 3 9 5 NO 1015,4 20 0,0
14.07.2018 22:00:00 23,8 12,7 20,6 23,3 18,3 5 3 8 5 O 1015,2 20 0,0
14.07.2018 21:00:00 24,6 13,2 22,1 23,3 18,3 5 3 17 9 OZO 1014,9 20 0,0
14.07.2018 20:00:00 26,4 12,8 26,3 23,2 18,3 9 5 16 9 O 1014,4 20 0,0
14.07.2018 19:00:00 27,3 12,1 29,5 23,0 18,3 5 3 18 10 O 1014,4 20 0,0
14.07.2018 18:00:00 29,4 10,5 35,4 22,7 18,3 6 3 24 13 N 1014,4 20 0,0
14.07.2018 17:00:00 29,6 11,2 38,2 22,4 18,3 15 8 26 14 NO 1014,7 20 0,0
14.07.2018 16:00:00 29,5 10,6 34,2 22,1 18,3 11 6 23 13 NNO 1015,1 20 0,0
14.07.2018 15:00:00 28,5 10,2 33,9 21,8 18,3 11 6 22 12 N 1015,6 20 0,0
14.07.2018 14:00:00 27,6 12,0 33,0 21,5 18,3 13 7 29 16 NNO 1016,1 20 0,0
14.07.2018 13:00:00 28,1 12,4 34,7 21,2 18,3 8 4 21 12 O 1016,5 20 0,0
14.07.2018 12:00:00 26,6 12,6 29,9 21,0 18,3 6 4 18 10 O 1017,1 20 0,0
14.07.2018 11:00:00 24,9 15,0 27,6 21,0 18,3 8 5 16 9 O 1017,5 20 0,0
14.07.2018 10:00:00 23,4 13,3 24,3 21,0 18,3 9 5 18 10 OZO 1018,2 8 0,0
14.07.2018 09:00:00 21,3 13,5 20,1 21,2 18,3 5 3 10 5 O 1018,6 20 0,0
14.07.2018 08:00:00 19,2 13,6 14,8 21,3 18,3 3 2 6 3 NO 1018,8 18 0,0
14.07.2018 07:00:00 15,9 13,4 11,7 21,5 18,3 3 1 5 3 NNW 1019,3 20 0,0
14.07.2018 06:00:00 14,6 12,3 11,8 21,7 18,3 3 2 8 4 NNW 1019,1 20 0,0
14.07.2018 05:00:00 14,9 11,9 12,0 21,9 18,3 1 1 4 2 NNW 1019,4 20 0,0
14.07.2018 04:00:00 15,4 12,2 12,9 22,0 18,3 3 2 5 3 Z 1019,2 20 0,0

tt = temperatuur
td = dauwpunt
tt 5cm = temperatuur 5cm
tt -20cm = temperatuur -20cm
tt -100cm = temperatuur -100cm
ff = windsnelheid
fx = windstoten
dd = windrichting
ppp = luchtdruk
vv = zicht
rr = neerslag

Weerstations in de omgeving